This is the latest recevied weather packets stored in our database for station/object KC4JES. If no packets are shown the sender has not sent any weather packets the latest 10 day(s).
| Time | Temp. | Humidity | Pressure | Rain* | Wind** | Luminosity | Snow |
|---|---|---|---|---|---|---|---|
| 1778085040 | 30.56° C | 54% | 1018 hPa | 0 mm | - | 136 W/m² | - |
| 1778084736 | 30.56° C | 54% | 1017.8 hPa | 0 mm | - | 143 W/m² | - |
| 1778084433 | 30.56° C | 53% | 1018.2 hPa | 0 mm | - | 125 W/m² | - |
| 1778084131 | 30° C | 54% | 1018 hPa | 0 mm | - | 113 W/m² | - |
| 1778083828 | 30° C | 55% | 1018 hPa | 0 mm | - | 131 W/m² | - |
| 1778083525 | 30° C | 55% | 1018 hPa | 0 mm | - | 128 W/m² | - |
| 1778083222 | 29.44° C | 55% | 1018.2 hPa | 0 mm | - | 123 W/m² | - |
| 1778082921 | 29.44° C | 56% | 1018.2 hPa | 0 mm | - | 90 W/m² | - |
| 1778081812 | 28.89° C | 56% | 1018.2 hPa | 0 mm | - | 90 W/m² | - |
| 1778081509 | 28.89° C | 59% | 1018.3 hPa | 0 mm | - | 88 W/m² | - |
| 1778081206 | 28.33° C | 61% | 1018.3 hPa | 0 mm | - | 81 W/m² | - |
| 1778080903 | 28.33° C | 60% | 1018.3 hPa | 0 mm | - | 77 W/m² | - |
| 1778080602 | 28.33° C | 59% | 1018.6 hPa | 0 mm | - | 85 W/m² | - |
| 1778080298 | 28.33° C | 60% | 1018.2 hPa | 0 mm | - | 97 W/m² | - |
| 1778079995 | 28.33° C | 62% | 1018.5 hPa | 0 mm | - | 84 W/m² | - |
| 1778079692 | 27.78° C | 60% | 1018.3 hPa | 0 mm | - | 77 W/m² | - |
| 1778079389 | 27.78° C | 60% | 1018 hPa | 0 mm | - | 78 W/m² | - |
| 1778079086 | 27.78° C | 61% | 1018.2 hPa | 0 mm | - | 88 W/m² | - |
| 1778078783 | 27.78° C | 66% | 1017.9 hPa | 0 mm | - | 93 W/m² | - |
| 1778078480 | 27.22° C | 64% | 1018 hPa | 0 mm | - | 94 W/m² | - |
| 1778078178 | 27.22° C | 62% | 1018.1 hPa | 0 mm | - | 98 W/m² | - |
| 1778077876 | 27.22° C | 65% | 1018.1 hPa | 0 mm | - | 109 W/m² | - |
| 1778077574 | 26.67° C | 66% | 1018 hPa | 0 mm | - | 64 W/m² | - |
| 1778077272 | 26.67° C | 67% | 1018.1 hPa | 0 mm | - | 74 W/m² | - |
| 1778076969 | 26.67° C | 66% | 1017.9 hPa | 0 mm | - | 67 W/m² | - |
* Rain latest hour (hover to see other rain measurements)
** Current wind speed in m/s (hover to see current wind gust speed)